FW0823 Weather Reports


time (UTC)temp
C
wind
direction
speed
KPH
gust
KPH
rain 1hr
cm
rain 24hr
cm
rain mn
cm
humidity
%
barometer
mb
20260507052024 15 0.0 0.0 0.00 0.00 0.00 81 1016.8
20260507051028 16 0.0 0.0 0.00 0.00 0.00 80 1016.7
20260507050033 16 0.0 0.0 0.00 0.00 0.00 79 1016.6
20260507045021 16 0.0 0.0 0.00 0.00 0.00 79 1016.5
20260507044024 16 0.0 0.0 0.00 0.00 0.00 78 1016.5
20260507043029 16 148 1.6 4.8 0.00 0.00 0.00 77 1016.5
20260507042019 17 189 1.6 4.8 0.00 0.00 0.00 75 1016.4
20260507041023 17 147 1.6 4.8 0.00 0.00 0.00 75 1016.3
20260507040025 17 134 4.8 6.4 0.00 0.00 0.00 74 1016.0
20260507035029 17 141 4.8 6.4 0.00 0.00 0.00 73 1016.0
20260507034019 18 162 4.8 8.0 0.00 0.00 0.00 72 1016.0
20260507033022 18 157 4.8 6.4 0.00 0.00 0.00 71 1015.9
20260507032026 18 238 1.6 6.4 0.00 0.00 0.00 69 1015.7
20260507031031 19 177 4.8 6.4 0.00 0.00 0.00 68 1015.5
20260507030021 20 188 3.2 8.0 0.00 0.00 0.00 66 1015.2
20260507025023 20 187 4.8 6.4 0.00 0.00 0.00 64 1015.2
20260507024028 21 211 1.6 4.8 0.00 0.00 0.00 62 1015.1
20260507023018 21 185 4.8 8.0 0.00 0.00 0.00 60 1015.0
20260507022144 22 215 4.8 9.7 0.00 0.00 0.00 59 1015.0
20260507021025 23 176 6.4 8.0 0.00 0.00 0.00 58 1014.8
20260507020030 23 211 4.8 9.7 0.00 0.00 0.00 56 1014.8
20260507015020 25 183 4.8 9.7 0.00 0.00 0.00 54 1014.8
20260507014042 25 238 6.4 9.7 0.00 0.00 0.00 54 1014.7
20260507013026 26 223 6.4 9.7 0.00 0.00 0.00 51 1014.5
20260507012026 26 215 8.0 11.3 0.00 0.00 0.00 51 1014.4
20260507010042 26 224 6.4 12.9 0.00 0.00 0.00 50 1014.2
20260507005019 26 195 8.0 12.9 0.00 0.00 0.00 50 1014.2
20260507004018 27 238 8.0 14.5 0.00 0.00 0.00 48 1014.1
20260507003037 28 243 8.0 16.1 0.00 0.00 0.00 47 1014.0
20260507002016 27 230 9.7 14.5 0.00 0.00 0.00 47 1014.0
20260507001027 27 236 6.4 11.3 0.00 0.00 0.00 47 1013.9
20260507000052 27 269 9.7 16.1 0.00 0.00 0.00 47 1013.8
20260506235022 28 282 8.0 12.9 0.00 0.00 0.00 44 1013.8
20260506234024 27 313 9.7 14.5 0.00 0.00 0.00 44 1013.8
20260506233029 28 245 8.0 11.3 0.00 0.00 0.00 43 1013.9
20260506232018 28 291 9.7 17.7 0.00 0.00 0.00 44 1013.9
20260506231024 27 258 11.3 19.3 0.00 0.00 0.00 45 1014.1
20260506230026 27 259 9.7 16.1 0.00 0.00 0.00 45 1014.2
20260506225031 29 281 9.7 16.1 0.00 0.00 0.00 42 1014.2
20260506224021 30 326 8.0 12.9 0.00 0.00 0.00 40 1014.2
20260506223023 30 208 4.8 9.7 0.00 0.00 0.00 40 1014.4
20260506222028 30 251 6.4 14.5 0.00 0.00 0.00 39 1014.5
20260506221018 28 191 6.4 11.3 0.00 0.00 0.00 41 1014.8
20260506220042 28 262 6.4 9.7 0.00 0.00 0.00 41 1015.0
20260506215024 26 256 8.0 11.3 0.00 0.00 0.00 44 1015.1
20260506214030 26 317 11.3 14.5 0.00 0.00 0.00 44 1015.2
20260506213019 26 292 9.7 11.3 0.00 0.00 0.00 45 1015.2
20260506212023 28 294 9.7 14.5 0.00 0.00 0.00 42 1015.3
20260506211023 28 264 4.8 8.0 0.00 0.00 0.00 42 1015.5
20260506210025 26 261 6.4 11.3 0.00 0.00 0.00 46 1015.7
20260506205050 28 286 8.0 14.5 0.00 0.00 0.00 43 1015.7
20260506204020 27 148 4.8 11.3 0.00 0.00 0.00 44 1015.8
20260506203019 26 304 8.0 11.3 0.00 0.00 0.00 45 1016.0
20260506202024 26 285 6.4 12.9 0.00 0.00 0.00 44 1016.1
20260506201026 26 311 4.8 8.0 0.00 0.00 0.00 45 1016.3
20260506200051 26 338 4.8 6.4 0.00 0.00 0.00 46 1016.5
20260506195019 24 280 8.0 12.9 0.00 0.00 0.00 50 1016.6
20260506194019 23 308 8.0 12.9 0.00 0.00 0.00 51 1016.6
20260506193024 25 274 8.0 12.9 0.00 0.00 0.00 47 1016.7
20260506192027 25 188 6.4 11.3 0.00 0.00 0.00 47 1016.9
20260506191031 26 152 3.2 6.4 0.00 0.00 0.00 46 1016.9
20260506190021 26 199 3.2 11.3 0.00 0.00 0.00 47 1017.1
20260506185023 24 159 3.2 8.0 0.00 0.00 0.00 50 1017.2
20260506184027 22 221 3.2 9.7 0.00 0.00 0.00 53 1017.2
20260506183032 22 306 8.0 11.3 0.00 0.00 0.00 54 1017.3
20260506182022 22 260 3.2 8.0 0.00 0.00 0.00 55 1017.5
20260506181024 21 259 4.8 6.4 0.00 0.00 0.00 55 1017.5
20260506180029 21 323 6.4 11.3 0.00 0.00 0.00 56 1017.4
20260506175018 21 282 6.4 11.3 0.00 0.00 0.00 56 1017.4
20260506174023 20 269 3.2 8.0 0.00 0.00 0.00 58 1017.4
20260506173025 21 291 6.4 11.3 0.00 0.00 0.00 56 1017.5
20260506172030 21 334 4.8 9.7 0.00 0.00 0.00 56 1017.5
20260506171040 21 310 4.8 11.3 0.00 0.00 0.00 55 1017.6
20260506170042 21 288 4.8 6.4 0.00 0.00 0.00 57 1017.6
20260506165027 21 267 3.2 6.4 0.00 0.00 0.00 58 1017.7
20260506164105 20 170 1.6 4.8 0.00 0.00 0.00 59 1017.7
20260506163018 20 270 1.6 4.8 0.00 0.00 0.00 62 1017.6
20260506162022 20 222 3.2 8.0 0.00 0.00 0.00 61 1017.6
20260506161021 20 0.0 0.0 0.00 0.00 0.00 63 1017.6
20260506160040 18 113 0.0 3.2 0.00 0.00 0.00 69 1017.5
20260506155019 18 126 1.6 4.8 0.00 0.00 0.00 69 1017.6
20260506154017 17 282 1.6 4.8 0.00 0.00 0.00 72 1017.6
20260506153016 17 0.0 0.0 0.00 0.00 0.00 75 1017.5
20260506152033 16 0.0 0.0 0.00 0.00 0.00 81 1017.5
20260506151021 15 0.0 0.0 0.00 0.00 0.00 87 1017.6
20260506150024 13 0.0 0.0 0.00 0.00 0.00 94 1017.7
20260506145028 12 0.0 0.0 0.00 0.00 0.00 99 1017.6
20260506144018 10 0.0 0.0 0.00 0.00 0.00 99 1017.6
20260506143044 9 0.0 0.0 0.00 0.00 0.00 99 1017.6
20260506142046 9 0.0 0.0 0.00 0.00 0.00 99 1017.6
20260506141030 8 0.0 0.0 0.00 0.00 0.00 99 1017.5
20260506140020 8 0.0 0.0 0.00 0.00 0.00 99 1017.4
20260506135022 8 0.0 0.0 0.00 0.00 0.00 99 1017.3
20260506134028 8 0.0 0.0 0.00 0.00 0.00 99 1017.3
20260506133113 8 0.0 0.0 0.00 0.00 0.00 99 1017.1
20260506132021 8 0.0 0.0 0.00 0.00 0.00 99 1017.0
20260506131023 8 0.0 0.0 0.00 0.00 0.00 99 1016.8
20260506130028 8 0.0 0.0 0.00 0.03 0.00 99 1016.8
20260506125033 7 0.0 0.0 0.00 0.03 0.00 99 1016.7
20260506124022 7 0.0 0.0 0.00 0.08 0.00 99 1016.7
20260506123025 7 0.0 0.0 0.00 0.20 0.00 98 1016.5
20260506122030 7 0.0 0.0 0.00 0.33 0.00 97 1016.6
20260506121020 7 0.0 0.0 0.00 0.33 0.00 98 1016.5
20260506120024 7 0.0 0.0 0.00 0.33 0.00 97 1016.5
20260506115026 8 0.0 0.0 0.00 0.33 0.00 98 1016.5
20260506114031 8 0.0 0.0 0.00 0.33 0.00 97 1016.5
20260506113041 8 0.0 0.0 0.00 0.33 0.00 97 1016.5
20260506112020 8 0.0 0.0 0.00 0.33 0.00 96 1016.5
20260506111022 8 0.0 0.0 0.00 0.33 0.00 95 1016.5
20260506110027 8 0.0 0.0 0.00 0.33 0.00 95 1016.5
20260506105032 8 0.0 0.0 0.00 0.33 0.00 95 1016.4
20260506104021 8 0.0 0.0 0.00 0.33 0.00 95 1016.4
20260506103044 8 0.0 0.0 0.00 0.36 0.00 94 1016.4
20260506102028 8 0.0 0.0 0.00 0.36 0.00 94 1016.5
20260506101032 8 0.0 0.0 0.00 0.36 0.00 94 1016.4
20260506100022 9 0.0 0.0 0.00 0.36 0.00 93 1016.4
20260506095024 8 0.0 0.0 0.00 0.36 0.00 93 1016.4
20260506094029 8 0.0 0.0 0.00 0.36 0.00 91 1016.4
20260506093018 9 0.0 0.0 0.00 0.36 0.00 91 1016.4
20260506092023 9 0.0 0.0 0.00 0.36 0.00 91 1016.6
20260506091025 9 0.0 0.0 0.00 0.36 0.00 90 1016.6
20260506090030 10 0.0 0.0 0.00 0.36 0.00 90 1016.7
20260506085020 10 0.0 0.0 0.00 0.36 0.00 89 1016.7
20260506084019 10 0.0 0.0 0.00 0.36 0.00 89 1016.7
20260506083041 10 0.0 0.0 0.00 0.36 0.00 88 1016.7
20260506082026 10 0.0 0.0 0.00 0.36 0.00 88 1016.7
20260506081025 10 0.0 0.0 0.00 0.36 0.00 88 1016.8
20260506073020 11 0.0 0.0 0.00 0.36 0.00 82 1016.9
20260506072019 12 0.0 0.0 0.00 0.36 0.00 81 1016.9
20260506071017 12 0.0 1.6 0.00 0.36 0.00 80 1016.8
20260506062030 13 13 3.2 6.4 0.00 0.36 0.36 78 1016.4
20260506061019 13 0.0 0.0 0.00 0.36 0.36 78 1016.4